When you browse on this site, cookies collect data to enhance your experience and personalize the content and advertising you see.
Visit our Privacy Policy to learn more. By continuing to use the site, you agree to this use of cookies and data.

Previsão horária em Pabna

Hoje, 6 Julho, Segunda-feira

Tempo Temperatura Precipitação Vento Pressão Humidade
00:00 +30°C° 0 mm 5 m/s 746 mmHg 89%
01:00 +30°C° 0 mm 5 m/s 746 mmHg 88%
02:00 +29°C° 0 mm 4 m/s 745 mmHg 88%
03:00 +29°C° 0 mm 4 m/s 745 mmHg 88%
04:00 +29°C° 0 mm 4 m/s 745 mmHg 89%
05:00 +29°C° 0 mm 4 m/s 745 mmHg 89%
06:00 +29°C° 0 mm 4 m/s 746 mmHg 90%
07:00 +30°C° 0 mm 5 m/s 746 mmHg 85%
08:00 +32°C° 0 mm 6 m/s 747 mmHg 80%
09:00 +34°C° 0 mm 7 m/s 747 mmHg 75%
10:00 +34°C° 0.7 mm 7 m/s 747 mmHg 73%
11:00 +35°C° 0.7 mm 7 m/s 747 mmHg 71%
12:00 +35°C° 0.7 mm 8 m/s 746 mmHg 69%
13:00 +35°C° 0.4 mm 7 m/s 746 mmHg 70%
14:00 +35°C° 0.4 mm 7 m/s 745 mmHg 71%
15:00 +34°C° 0.4 mm 6 m/s 745 mmHg 72%
16:00 +34°C° 0.8 mm 6 m/s 745 mmHg 75%
17:00 +33°C° 0.8 mm 5 m/s 745 mmHg 77%
18:00 +33°C° 0.8 mm 5 m/s 745 mmHg 79%
19:00 +32°C° 0.6 mm 5 m/s 745 mmHg 82%
20:00 +32°C° 0.6 mm 5 m/s 746 mmHg 84%
21:00 +30°C° 0.6 mm 5 m/s 747 mmHg 87%
22:00 +30°C° 0.1 mm 5 m/s 747 mmHg 88%
23:00 +29°C° 0.1 mm 5 m/s 747 mmHg 89%

Amanhã, 7 Julho, Terça-feira

Tempo Temperatura Precipitação Vento Pressão Humidade
00:00 +29°C° 0.1 mm 5 m/s 748 mmHg 89%
01:00 +29°C° 0.1 mm 5 m/s 747 mmHg 90%
02:00 +29°C° 0.1 mm 4 m/s 747 mmHg 90%
03:00 +29°C° 0.1 mm 4 m/s 747 mmHg 90%
04:00 +29°C° 0 mm 4 m/s 747 mmHg 90%
05:00 +29°C° 0 mm 4 m/s 748 mmHg 90%
06:00 +29°C° 0 mm 4 m/s 748 mmHg 90%
07:00 +30°C° 0.4 mm 4 m/s 748 mmHg 85%
08:00 +33°C° 0.4 mm 5 m/s 749 mmHg 79%
09:00 +34°C° 0.4 mm 5 m/s 749 mmHg 73%
10:00 +35°C° 0.1 mm 5 m/s 749 mmHg 69%
11:00 +36°C° 0.1 mm 5 m/s 749 mmHg 65%
12:00 +37°C° 0.1 mm 5 m/s 749 mmHg 62%
13:00 +37°C° 1 mm 5 m/s 748 mmHg 63%
14:00 +37°C° 1 mm 5 m/s 747 mmHg 64%
15:00 +37°C° 1 mm 5 m/s 747 mmHg 65%
16:00 +36°C° 0.3 mm 5 m/s 747 mmHg 68%
17:00 +35°C° 0.3 mm 5 m/s 747 mmHg 71%
18:00 +34°C° 0.3 mm 4 m/s 747 mmHg 74%
19:00 +34°C° 0 mm 4 m/s 747 mmHg 76%
20:00 +33°C° 0 mm 5 m/s 748 mmHg 78%
21:00 +32°C° 0 mm 5 m/s 749 mmHg 80%
22:00 +32°C° 0 mm 5 m/s 749 mmHg 81%
23:00 +30°C° 0 mm 5 m/s 749 mmHg 82%

Depois de amanhã, 8 Julho, Quarta-feira

Tempo Temperatura Precipitação Vento Pressão Humidade
00:00 +30°C° 0 mm 4 m/s 749 mmHg 84%
01:00 +30°C° 0 mm 4 m/s 749 mmHg 85%
02:00 +30°C° 0 mm 4 m/s 749 mmHg 85%
03:00 +30°C° 0 mm 4 m/s 749 mmHg 86%
04:00 +30°C° 0 mm 4 m/s 749 mmHg 86%
05:00 +29°C° 0 mm 4 m/s 749 mmHg 87%
06:00 +29°C° 0 mm 4 m/s 749 mmHg 87%
07:00 +32°C° 0.5 mm 4 m/s 749 mmHg 82%
08:00 +33°C° 0.5 mm 4 m/s 749 mmHg 77%
09:00 +34°C° 0.5 mm 5 m/s 750 mmHg 72%
10:00 +35°C° 1.2 mm 4 m/s 750 mmHg 68%
11:00 +36°C° 1.2 mm 4 m/s 749 mmHg 63%
12:00 +37°C° 1.2 mm 4 m/s 749 mmHg 59%
13:00 +37°C° 0.9 mm 4 m/s 748 mmHg 59%
14:00 +37°C° 0.9 mm 4 m/s 748 mmHg 60%
15:00 +37°C° 0.9 mm 4 m/s 747 mmHg 61%
16:00 +36°C° 2.2 mm 3 m/s 747 mmHg 66%
17:00 +35°C° 2.2 mm 3 m/s 747 mmHg 71%
18:00 +34°C° 2.2 mm 2 m/s 747 mmHg 75%
19:00 +34°C° 1.6 mm 3 m/s 747 mmHg 77%
20:00 +33°C° 1.6 mm 3 m/s 748 mmHg 79%
21:00 +32°C° 1.6 mm 4 m/s 748 mmHg 80%
22:00 +32°C° 1.1 mm 4 m/s 748 mmHg 83%
23:00 +30°C° 1.1 mm 4 m/s 748 mmHg 85%

9 Julho, Quinta-feira

Tempo Temperatura Precipitação Vento Pressão Humidade
00:00 +30°C° 1.1 mm 4 m/s 748 mmHg 87%
01:00 +29°C° 0.3 mm 4 m/s 748 mmHg 87%
02:00 +29°C° 0.3 mm 4 m/s 747 mmHg 88%
03:00 +29°C° 0.3 mm 3 m/s 747 mmHg 88%
04:00 +29°C° 0.2 mm 3 m/s 747 mmHg 88%
05:00 +29°C° 0.2 mm 3 m/s 747 mmHg 88%
06:00 +29°C° 0.2 mm 4 m/s 747 mmHg 88%
07:00 +32°C° 0.6 mm 4 m/s 747 mmHg 82%
08:00 +33°C° 0.6 mm 5 m/s 747 mmHg 76%
09:00 +35°C° 0.6 mm 5 m/s 748 mmHg 70%
10:00 +35°C° 2.5 mm 5 m/s 748 mmHg 70%
11:00 +35°C° 2.5 mm 5 m/s 747 mmHg 70%
12:00 +35°C° 2.5 mm 4 m/s 747 mmHg 71%
13:00 +34°C° 3 mm 4 m/s 747 mmHg 76%
14:00 +33°C° 3 mm 3 m/s 746 mmHg 81%
15:00 +31°C° 3 mm 3 m/s 746 mmHg 85%
16:00 +31°C° 0.6 mm 3 m/s 746 mmHg 85%
17:00 +31°C° 0.6 mm 2 m/s 746 mmHg 85%
18:00 +31°C° 0.6 mm 2 m/s 746 mmHg 84%
19:00 +30°C° 1.3 mm 4 m/s 746 mmHg 86%
20:00 +30°C° 1.3 mm 5 m/s 746 mmHg 88%
21:00 +29°C° 1.3 mm 7 m/s 747 mmHg 89%
22:00 +29°C° 1.4 mm 5 m/s 747 mmHg 90%
23:00 +29°C° 1.4 mm 4 m/s 747 mmHg 91%

10 Julho, Sexta-feira

Tempo Temperatura Precipitação Vento Pressão Humidade
00:00 +29°C° 1.4 mm 2 m/s 747 mmHg 93%
01:00 +29°C° 2.9 mm 3 m/s 746 mmHg 92%
02:00 +29°C° 2.9 mm 3 m/s 746 mmHg 92%
03:00 +29°C° 2.9 mm 4 m/s 745 mmHg 92%
04:00 +29°C° 1 mm 4 m/s 745 mmHg 92%
05:00 +29°C° 1 mm 4 m/s 746 mmHg 92%
06:00 +28°C° 1 mm 4 m/s 746 mmHg 92%
07:00 +29°C° 0.2 mm 3 m/s 746 mmHg 90%
08:00 +30°C° 0.2 mm 3 m/s 746 mmHg 88%
09:00 +30°C° 0.2 mm 3 m/s 747 mmHg 86%
10:00 +30°C° 0.1 mm 3 m/s 747 mmHg 84%
11:00 +31°C° 0.1 mm 2 m/s 747 mmHg 82%
12:00 +31°C° 0.1 mm 2 m/s 747 mmHg 81%
13:00 +33°C° 0.7 mm 3 m/s 746 mmHg 79%
14:00 +33°C° 0.7 mm 4 m/s 745 mmHg 77%
15:00 +34°C° 0.7 mm 4 m/s 745 mmHg 75%
16:00 +33°C° 1.7 mm 4 m/s 745 mmHg 79%
17:00 +31°C° 1.7 mm 3 m/s 745 mmHg 82%
18:00 +30°C° 1.7 mm 2 m/s 745 mmHg 86%
19:00 +30°C° 2.7 mm 4 m/s 745 mmHg 88%
20:00 +29°C° 2.7 mm 5 m/s 746 mmHg 89%
21:00 +29°C° 2.7 mm 6 m/s 746 mmHg 91%
22:00 +29°C° 3.1 mm 5 m/s 746 mmHg 92%
23:00 +29°C° 3.1 mm 5 m/s 746 mmHg 92%

11 Julho, Sábado

Tempo Temperatura Precipitação Vento Pressão Humidade
00:00 +29°C° 3.1 mm 4 m/s 746 mmHg 93%
01:00 +29°C° 6.2 mm 4 m/s 746 mmHg 92%
02:00 +29°C° 6.2 mm 5 m/s 746 mmHg 92%
03:00 +29°C° 6.2 mm 5 m/s 745 mmHg 91%
04:00 +29°C° 2.5 mm 5 m/s 746 mmHg 92%
05:00 +28°C° 2.5 mm 4 m/s 746 mmHg 92%
06:00 +28°C° 2.5 mm 4 m/s 746 mmHg 92%
07:00 +29°C° 1 mm 4 m/s 746 mmHg 90%
08:00 +29°C° 1 mm 4 m/s 747 mmHg 89%
09:00 +30°C° 1 mm 3 m/s 747 mmHg 87%
10:00 +30°C° 1.2 mm 4 m/s 747 mmHg 85%
11:00 +32°C° 1.2 mm 4 m/s 747 mmHg 82%
12:00 +32°C° 1.2 mm 4 m/s 747 mmHg 80%
13:00 +33°C° 0.5 mm 4 m/s 747 mmHg 80%
14:00 +33°C° 0.5 mm 4 m/s 746 mmHg 80%
15:00 +33°C° 0.5 mm 4 m/s 746 mmHg 80%
16:00 +33°C° 1.3 mm 4 m/s 746 mmHg 81%
17:00 +31°C° 1.3 mm 3 m/s 746 mmHg 83%
18:00 +31°C° 1.3 mm 3 m/s 746 mmHg 85%
19:00 +30°C° 4.1 mm 4 m/s 746 mmHg 87%
20:00 +29°C° 4.1 mm 5 m/s 747 mmHg 89%
21:00 +28°C° 4.1 mm 6 m/s 748 mmHg 92%
22:00 +28°C° 1.4 mm 5 m/s 748 mmHg 93%
23:00 +28°C° 1.4 mm 4 m/s 748 mmHg 93%
Mostrar mais